Location: Lingfield
(51.1667°N, 0.0167°W)
Time: 05:20:47
(UTC+00:00)

Daily predictions for brighter satellites

Satellite Brightness Start Highest point End
(mag) Time Altitude Azimuth Time Altitude Azimuth Time Altitude Azimuth
SL-16 R/B 4.4 03:19:10 21° ENE 03:19:10 21° ENE 03:21:56 10° E
Cosmos 2082 Rocket 4.3 03:23:08 22° E 03:23:08 22° E 03:26:12 10° NE
USA 234 4.3 03:24:38 10° ENE 03:28:36 40° NE 03:28:36 40° NE
NOSS 3-1 (C) 4.1 03:52:29 67° ENE 03:52:29 67° ENE 04:00:22 10° SE
COSMOS 2455 4.0 04:07:00 36° SE 04:07:00 36° SE 04:10:26 10° SE
Cosmos 2360 Rocket 3.8 04:09:26 26° NNE 04:10:27 28° NE 04:15:14 10° E
Cosmos 2333 Rocket 3.4 04:11:00 36° NNE 04:11:39 37° NE 04:16:58 10° ESE
ATLAS 3B R/B 4.0 04:14:24 32° N 04:15:37 33° N 04:22:34 10° ENE
ACS3 Solar Sail 4.0 04:12:11 10° N 04:12:40 12° N 04:12:40 12° N
NOSS 3-4 (A) 4.4 04:23:04 35° NNE 04:23:04 35° NNE 04:27:05 10° NE
NOSS 3-4 (C) 4.4 04:23:13 35° NNE 04:23:13 35° NNE 04:27:14 10° NE
Cosmos 2219 Rocket 4.0 04:25:49 20° N 04:27:50 25° NE 04:32:26 10° E
ADEOS Rocket 4.4 04:22:44 10° N 04:27:21 35° NNW 04:27:21 35° NNW
COSMO-SKYMED 1 4.1 04:28:55 10° SE 04:32:33 30° ENE 04:32:39 30° ENE
Cosmos 2322 Rocket 3.3 04:32:25 32° N 04:34:09 39° NE 04:39:28 10° ESE
Cosmos 1937 Rocket 3.8 04:49:25 57° SSE 04:49:25 57° SSE 04:53:29 10° SSE
Cosmos 858 Rocket 4.5 04:49:23 74° NE 04:49:36 76° ENE 04:54:47 10° SSE
USA 59 Rocket 2.0 04:54:18 19° S 04:54:18 19° S 04:55:56 10° SSE
Cosmos 2237 4.3 04:53:25 61° SSW 04:53:25 61° SSW 04:58:20 10° SSE
Cosmos 1833 Rocket 4.3 04:55:09 22° N 04:55:09 22° N 04:57:42 10° NNE
Aureole 1 Rocket 4.4 04:53:29 53° WSW 04:53:29 53° WSW 05:00:12 10° S
Meteor 2-3 Rocket 4.3 04:48:59 10° S 04:54:33 56° E 05:00:07 10° NNE
Cosmos 2058 Rocket 4.2 04:54:41 25° NNE 04:56:51 43° ENE 05:01:03 10° SE
COSMOS 2406 3.5 04:55:16 15° SSW 04:59:54 66° ESE 05:05:33 10° NE
NOSS 3-1 (A) 3.9 04:57:15 43° NW 04:59:58 81° NE 05:08:37 10° SE
SKYMED 2 3.7 04:56:26 10° SSE 05:00:15 67° SE 05:00:15 67° SE
SL-16 R/B 2.1 05:01:03 56° NNW 05:02:19 88° ENE 05:08:00 10° SSE
Cosmos 2082 Rocket 2.0 05:05:01 67° W 05:05:25 70° WNW 05:11:03 10° NNE
CZ-4 R/B 4.3 05:02:19 10° NNE 05:06:55 57° ESE 05:11:27 10° S
ATLAS 5 CENTAUR R/B 3.6 05:10:38 12° NNE 05:10:38 12° NNE 05:11:08 10° NNE
SeaSat 1 3.8 05:04:54 10° NNE 05:07:30 26° N 05:07:30 26° N
BREEZE-M DEB (TANK) 4.4 05:12:02 34° ESE 05:12:02 34° ESE 05:13:37 10° E
Okean 1 4.2 05:11:24 35° NE 05:12:13 42° ENE 05:15:36 10° SSE
USA 234 3.6 05:07:30 10° ENE 05:13:51 54° N 05:15:57 39° NW
CZ-2C R/B 4.1 05:11:31 10° N 05:13:16 20° N 05:13:16 20° N
Helios 1A Rocket 3.2 05:13:24 10° SSE 05:15:55 47° SE 05:15:55 47° SE
NOAA 12 4.2 05:11:58 10° NNE 05:17:17 74° ESE 05:22:32 10° S
Cosmos 2285 Rocket 4.4 05:17:03 16° NNW 05:22:14 61° ENE 05:28:34 10° SE
BREEZE-M DEB (TANK) 3.1 05:23:26 53° SE 05:23:26 53° SE 05:26:58 10° E
BREEZE-M DEB (TANK) 3.1 05:24:35 36° S 05:24:47 36° S 05:29:33 10° ESE
Cosmos 2278 3.6 05:24:16 39° NW 05:26:23 74° WSW 05:32:00 10° SSE
SL-4 R/B 1.8 05:28:33 59° SE 05:28:33 59° SE 05:31:15 10° ESE
FengYun 1-2 T 4.2 05:24:11 10° N 05:29:46 62° WNW 05:35:20 10° SSW
NOSS 8 (A) 4.5 05:33:11 60° E 05:33:11 60° E 05:35:59 10° SE
Cosmos 2221 4.3 05:30:47 10° N 05:34:27 30° ENE 05:38:06 10° SE
Cosmos 2026 Rocket 3.9 05:28:26 10° S 05:34:30 88° W 05:40:39 10° N
Cosmos 1726 Rocket 4.4 05:38:10 31° SW 05:38:10 31° SW 05:40:46 10° SSW
SL-16 R/B 4.5 05:39:14 10° N 05:41:00 11° NNE 05:42:48 10° NNE
NOSS 3-1 (C) 4.5 05:39:51 31° WNW 05:42:42 41° WSW 05:50:44 10° S
Cosmos 841 Rocket 3.6 05:40:31 27° WSW 05:43:08 51° WNW 05:48:17 10° NNE
Cosmos 405 Rocket 4.0 05:40:20 10° SSE 05:43:21 35° E 05:46:22 10° NNE
COSMOS 2455 4.1 05:50:11 21° WSW 05:50:11 21° WSW 05:53:59 10° SSW
Cosmos 2360 Rocket 2.1 05:51:12 21° NW 05:55:00 74° WSW 06:00:36 10° SSE
Cosmos 2333 Rocket 2.4 05:53:03 25° NW 05:56:11 52° WSW 06:01:43 10° S
Cosmos 1626 Rocket 4.0 05:52:16 10° S 05:56:38 64° E 06:01:00 10° NNE
Cosmos 1553 Rocket 4.0 05:50:37 10° N 05:57:03 90° ENE 06:03:28 10° S
SMAP 4.5 05:55:16 10° NNE 05:59:40 40° E 06:04:03 10° SSE
Cosmos 1892 Rocket 3.8 05:57:11 10° SW 06:01:21 42° WNW 06:05:35 10° N
Cosmos 1092 Rocket 3.9 05:55:11 10° SSW 06:01:25 67° WNW 06:07:38 10° N
Meteor 2-2 Rocket 4.3 05:57:12 10° NNW 06:02:45 56° W 06:08:22 10° S
Cosmos-2242 3.1 06:00:27 22° NNW 06:02:49 47° W 06:06:51 10° SSW
Nadezhda 4 Rocket 4.5 05:58:39 10° SW 06:04:23 36° WNW 06:10:06 10° N
Cosmos 2237 Rocket 4.0 06:00:47 10° NNW 06:05:13 23° NE 06:09:39 10° E
Cosmos 1125 Rocket 3.9 06:01:43 10° NNW 06:06:58 63° ENE 06:12:09 10° SE
COSMO-SKYMED 1 3.1 06:04:07 10° SSW 06:07:48 32° W 06:08:59 27° WNW
ATLAS 3B R/B 3.5 06:01:38 16° NW 06:08:04 55° NE 06:15:32 10° ESE
IRS-1D 3.9 06:07:51 10° N 06:12:27 38° WNW 06:17:07 10° SW
Cosmos 2219 Rocket 2.2 06:07:32 14° NNW 06:12:31 86° WSW 06:18:09 10° SSE
Cosmos 2322 Rocket 2.5 06:14:14 17° NW 06:18:18 47° WSW 06:23:41 10° S
BREEZE-M DEB (TANK) 4.3 05:58:45 10° W 06:19:45 81° S 06:24:31 10° E
Meteor 2-6 Rocket 4.4 06:18:58 10° NNW 06:24:52 65° W 06:30:44 10° S
Cosmos 1812 Rocket 3.5 06:22:26 10° N 06:26:47 88° WSW 06:31:06 10° S
IGS 5A 3.3 06:23:15 10° N 06:27:13 63° WNW 06:31:11 10° SSW
Cosmos 2322 4.2 06:21:57 10° NNW 06:27:34 59° NE 06:33:09 10° SE
Cosmos 1484 Rocket 2.7 06:25:10 10° N 06:28:28 45° WNW 06:31:42 10° SW
Cosmos 2266 Rocket 4.3 06:26:30 10° S 06:32:51 74° E 06:39:10 10° NNE
Cosmos 1437 Rocket 2.4 06:29:27 10° NNW 06:32:56 85° ENE 06:36:24 10° SSE
Cosmos 192 4.3 06:28:09 10° NNW 06:33:05 73° WSW 06:37:57 10° SSE
Cosmos 2058 Rocket 4.2 06:31:52 14° NW 06:34:28 24° W 06:37:58 10° SW
Cosmos 1417 Rocket 4.4 06:28:47 10° N 06:34:56 84° W 06:41:07 10° S
Cosmos 1602 Rocket 3.6 06:30:41 10° S 06:35:07 85° E 06:39:35 10° NNE
ATLAS 2AS CENTAUR R/B 3.5 06:28:58 10° SSW 06:35:48 56° SE 06:42:29 10° NE
SL-08 ROCKET BODY 4.3 06:33:45 10° SSW 06:39:33 66° WNW 06:45:24 10° N
Cosmos 1743 2.2 06:37:24 10° SSW 06:40:36 63° WNW 06:43:51 10° N
ARIANE 5 R/B 3.1 06:35:32 10° NNE 06:40:44 66° ESE 06:45:56 10° S
COSMOS 2406 4.0 06:39:40 10° WSW 06:44:38 30° NW 06:49:38 10° NNE
SeaSat 1 4.3 06:43:46 10° N 06:45:35 12° NNW 06:47:07 11° NW
SL-16 R/B 3.6 06:42:55 13° WNW 06:45:39 18° W 06:49:22 10° SW
COSMOS 2428 3.0 06:44:11 10° NNW 06:49:54 72° ENE 06:55:36 10° SE
Cosmos 2082 Rocket 3.5 06:46:54 12° WNW 06:50:32 20° NW 06:54:36 10° NNE
ATLAS 5 CENTAUR R/B 3.2 06:50:26 10° NNW 06:52:11 13° N 06:54:04 10° NNE
USA 234 3.5 06:49:57 10° E 06:56:28 68° NNE 07:02:59 10° WNW
Cosmos 1814 Rocket 4.3 06:53:30 10° SW 06:58:33 47° WNW 07:03:42 10° NNE
MOS 1 Rocket 3.7 06:53:10 10° NNE 06:58:36 88° ESE 07:03:54 10° SSW
CBERS-1 4.3 06:55:22 10° N 07:00:13 46° WNW 07:05:03 10° SW
Meteor 1-27 Rocket 3.8 06:58:09 10° NNW 07:04:03 87° W 07:09:49 10° S
SAR-Lupe-4 3.5 07:01:02 10° N 07:04:34 65° WNW 07:08:05 10° SSW
SL-4 R/B 3.1 07:02:41 10° W 07:05:17 23° SW 07:07:51 10° SSE
CZ-2D R/B 2.9 07:03:42 10° N 07:06:47 48° WNW 07:09:50 10° SSW
Cosmos 1570 Rocket 4.4 07:03:04 10° SSW 07:08:21 71° ESE 07:13:41 10° NNE
Cosmos 2151 3.1 07:04:39 10° SSW 07:08:36 46° WNW 07:12:35 10° N
Cosmos 1825 Rocket 3.6 07:04:19 10° S 07:08:45 87° W 07:13:12 10° N
Cosmos 2221 3.3 07:07:51 10° NNW 07:11:29 30° W 07:15:07 10° SSW
Cosmos 1758 Rocket 4.3 07:07:36 10° SW 07:11:30 30° WNW 07:15:25 10° N
CORIOLIS 4.3 07:08:09 10° N 07:13:25 55° WNW 07:18:39 10° SW
SAR-Lupe-1 4.1 07:10:38 10° N 07:14:12 59° WNW 07:17:44 10° SSW
USA 229 4.1 07:08:21 10° NW 07:15:42 83° SW 07:23:50 10° SE
USA 229 DEB 4.1 07:08:27 10° NW 07:15:48 83° SW 07:23:55 10° SE
Meteor 1-20 Rocket 4.2 07:12:16 10° SSW 07:17:53 66° WNW 07:23:24 10° N
